Location: Newark
(63.1158°N, 8.1461°E)
Time: 16:17:35
(UTC+00:00)

Envisat - Pass Details

Date: 17 December 2019
Orbit: 764 x 766 km, 98.1° (Epoch: 27 January)

Event Time Altitude Azimuth Distance (km) Brightness Sun altitude
Rises 16:40:37 0° 157° (SSE) 3,230 6.2 -16.0°
Reaches altitude 10° 16:42:54 10° 157° (SSE) 2,307 5.4 -16.3°
Maximum altitude 16:48:00 87° 72° (ENE) 778 2.9 -16.8°
Drops below altitude 10° 16:53:09 10° 342° (NNW) 2,321 5.5 -17.4°
Sets 16:55:27 0° 342° (NNW) 3,251 6.3 -17.6°
